[Iaude] MPEC G59: 2017 GL5 [a=1.45,e=0.32,i=28.6,H=24.8]

mpec at si.edu mpec at si.edu
Thu Apr 6 18:31:38 EDT 2017


M.P.E.C. 2017-G59                                Issued 2017 Apr. 6, 22:28 UT
 
     The Minor Planet Electronic Circulars contain information on unusual
         minor planets and routine data on comets.  They are published
    on behalf of Division F of the International Astronomical Union by the
          Minor Planet Center, Smithsonian Astrophysical Observatory,
                          Cambridge, MA 02138, U.S.A.

             Prepared using the Tamkin Foundation Computer Network

                              MPC at CFA.HARVARD.EDU
            URL http://www.minorplanetcenter.net/    ISSN 1523-6714


                                   2017 GL5
 
Observations:
     K17G05L* C2017 04 03.31912 13 33 18.22 +07 41 55.6                qEG059G96
     K17G05L  C2017 04 03.32338 13 33 14.55 +07 40 29.9          20.1 VqEG059G96
     K17G05L  C2017 04 03.32765 13 33 10.89 +07 39 05.3          20.0 VqEG059G96
     K17G05L  C2017 04 03.33191 13 33 07.28 +07 37 41.8          20.1 VqEG059G96
     K17G05L  C2017 04 03.42504 13 31 47.25 +07 06 46.1          20.5 VqEG059I52
     K17G05L  C2017 04 03.42545 13 31 46.89 +07 06 38.2          19.8 VqEG059I52
     K17G05L  C2017 04 03.42586 13 31 46.55 +07 06 29.9          19.6 VqEG059I52
     K17G05L  C2017 04 03.42628 13 31 46.18 +07 06 22.0          20.1 VqEG059I52
     K17G05L  C2017 04 03.46647 13 31 12.15 +06 53 00.8          20.0 VqEG059I52
     K17G05L  C2017 04 03.46750 13 31 11.29 +06 52 40.9          20.5 VqEG059I52
     K17G05L  C2017 04 03.46833 13 31 10.60 +06 52 24.1          19.7 VqEG059I52
     K17G05L  C2017 04 03.53361 13 30 18.740+06 31 11.54         20.3 wLEG059F51
     K17G05L  C2017 04 03.55652 13 29 59.215+06 23 36.43         20.6 wLEG059F51
     K17G05L  C2017 04 04.25521 13 20 45.69 +02 34 37.0          20.3 VqEG059I52
     K17G05L  C2017 04 04.25562 13 20 45.34 +02 34 29.4          19.8 VqEG059I52
     K17G05L  C2017 04 04.25622 13 20 44.90 +02 34 17.4          20.2 VqEG059I52
     K17G05L  C2017 04 04.36035 13 19 19.25 +02 00 43.7          20.0 RoEG059926
     K17G05L  C2017 04 04.36269 13 19 17.30 +01 59 58.7          19.9 RoEG059926
     K17G05L  C2017 04 04.36502 13 19 15.41 +01 59 13.7          19.8 RoEG059926
     K17G05L KC2017 04 05.09174 13 09 56.81 -01 50 46.7                UEG059J95
     K17G05L KC2017 04 05.09509 13 09 54.20 -01 51 49.3          19.9 GUEG059J95
     K17G05L KC2017 04 05.15952 13 09 10.51 -02 11 27.3          20.0 VqEG059W25
     K17G05L KC2017 04 05.17617 13 08 57.50 -02 16 35.6          19.7 VqEG059W25
     K17G05L  C2017 04 05.23386 13 08 15.09 -02 34 08.7          20.1 VqEG059I52
     K17G05L  C2017 04 05.23652 13 08 13.05 -02 34 57.4          20.5 VqEG059I52
     K17G05L  C2017 04 05.24118 13 08 09.39 -02 36 23.7          20.3 VqEG059I52
     K17G05L  C2017 04 05.24384 13 08 07.34 -02 37 12.2          19.9 VqEG059I52
     K17G05L  C2017 04 05.24660 13 08 05.28 -02 38 00.4          20.0 RuEG059926
     K17G05L  C2017 04 05.25142 13 08 01.51 -02 39 29.4          20.4 RuEG059926
     K17G05L  C2017 04 05.25626 13 07 57.75 -02 40 58.5          20.2 RuEG059926
     K17G05L  C2017 04 05.26120 13 07 53.91 -02 42 29.2          20.5 RuEG059926
     K17G05L  C2017 04 05.26603 13 07 50.11 -02 43 58.0          20.3 RuEG059926
     K17G05L  C2017 04 05.27086 13 07 46.34 -02 45 26.8          20.3 RuEG059926
     K17G05L  C2017 04 05.28688 13 07 33.79 -02 50 20.2          19.6 RoEG059926
     K17G05L  C2017 04 05.28905 13 07 32.12 -02 51 00.0          19.3 RoEG059926
     K17G05L  C2017 04 05.29249 13 07 29.41 -02 52 03.6          19.5 RoEG059926
     K17G05L  C2017 04 06.18625 12 56 45.02 -07 15 53.0          20.0 VqEG059G96
     K17G05L  C2017 04 06.19208 12 56 40.76 -07 17 33.8          19.9 VqEG059G96
     K17G05L  C2017 04 06.19387 12 56 39.45 -07 18 03.8          19.8 VqEG059G96
     K17G05L  C2017 04 06.19563 12 56 38.19 -07 18 34.0          20.3 VqEG059G96
     K17G05L KC2017 04 06.22084 12 56 18.22 -07 25 53.7          19.7 RqEG059H36
     K17G05L KC2017 04 06.23044 12 56 11.19 -07 28 36.8          19.5 RqEG059H36
     K17G05L KC2017 04 06.23990 12 56 04.19 -07 31 17.7          19.6 RqEG059H36
 
Observer details:
926 Tenagra II Observatory.  Observers M. Schwartz, P. R. Holvorcem.  Measurer
    M. Schwartz.  0.41-m f/3.75 astrograph + CCD, 0.81-m f/7 Ritchey-Chretien
    + CCD.
F51 Pan-STARRS 1, Haleakala.  Observers B. Gibson, T. Goggia, T. Lowe,
    A. Schultz, M. Willman.  Measurers K. Chambers, S. Chastel, L. Denneau,
    H. Flewelling, M. Huber, E. Lilly, E. Magnier, R. Wainscoat, C. Waters,
    R. Weryk.  1.8-m Ritchey-Chretien + CCD.
G96 Mt. Lemmon Survey.  Observers R. G. Matheny, D. C. Fuls.  Measurers
    E. J. Christensen, D. C. Fuls, A. R. Gibbs, A. D. Grauer, J. A. Johnson,
    R. A. Kowalski, S. M. Larson, G. J. Leonard, R. G. Matheny, R. L. Seaman,
    F. C. Shelly.  1.5-m reflector + 10K CCD.
H36 Sandlot Observatory, Scranton.  Observer G. Hug.  0.56-m reflector + CCD.
I52 Steward Observatory, Mt. Lemmon Station.  Observer E. J. Christensen.
    Measurers E. J. Christensen, D. C. Fuls, A. R. Gibbs, A. D. Grauer,
    J. A. Johnson, R. A. Kowalski, S. M. Larson, G. J. Leonard, R. G. Matheny,
    R. L. Seaman, F. C. Shelly.  1.0-m reflector + CCD.
J95 Great Shefford.  Observer P. Birtwhistle.  0.40-m f/6.0 Schmidt-Cassegrain
    + CCD.
W25 RMS Observatory, Cincinnati.  Observer B. Rowe.  0.35-m Schmidt-Cassegrain
    + CCD.
 
Orbital elements:
2017 GL5                                                 Earth MOID = 0.0815 AU
Epoch 2017 Feb. 16.0 TT = JDT 2457800.5                 MPC
M 359.67000              (2000.0)            P               Q
n   0.56183599     Peri.  127.69746     -0.78043513     -0.61092083
a   1.4545534      Node    16.13258     +0.30567819     -0.55842254
e   0.3220484      Incl.   28.60454     +0.54541897     -0.56119516
P   1.75           H   24.8           G   0.15           U   8
Residuals in seconds of arc
170403 G96  0.0   0.3+    170404 I52  0.8+  0.1+    170405 926  0.8+  0.1+
170403 G96  0.0   0.7-    170404 926  0.1-  0.1+    170405 926  0.3+  0.1-
170403 G96  0.3+  0.3-    170404 926  0.5-  0.3+    170405 926  0.3+  0.2-
170403 G96  1.2+  1.0+    170404 926  0.2-  0.3+    170405 926  0.4-  0.2+
170403 I52  0.3-  0.5-    170405 J95  0.5+  0.2+    170405 926  0.1-  0.2+
170403 I52  0.4-  0.2-    170405 J95  0.3+  0.3-    170405 926  0.5-  0.4-
170403 I52  0.3-  0.4-    170405 W25  0.7-  0.2-    170406 G96  0.2-  0.6+
170403 I52  0.5-  0.1+    170405 W25  1.2-  0.8-    170406 G96  0.2-  0.4-
170403 I52  0.7+  0.8-    170405 I52  0.5-  0.6-    170406 G96  0.2-  0.2+
170403 I52  0.9+  0.2-    170405 I52  0.1-  0.3-    170406 G96  0.2+  0.1+
170403 I52  1.1+  0.5-    170405 I52  0.6-  0.9-    170406 H36  0.4-  0.1+
170403 F51  0.4-  0.2+    170405 I52  0.2-  0.5-    170406 H36  0.0   0.4+
170403 F51  0.4-  0.3+    170405 926  0.6+  0.6+    170406 H36  0.8-  0.5+
170404 I52  0.2+  0.2+    170405 926  0.4+  0.2+
170404 I52  0.0   0.5+    170405 926  0.6+  0.0

Ephemeris:
2017 GL5                 a,e,i = 1.45, 0.32, 29                  q = 0.9861
Date    TT    R. A. (2000) Decl.     Delta      r     Elong.  Phase     V
2017 03 07    18 24 51.2 +58 42 16   0.2515  1.0024    85.1    80.5    24.6
...
2017 03 22    16 29 47.1 +51 17 33   0.1356  1.0379   104.2    68.5    23.0
...
2017 03 30    14 36 51.1 +30 06 38   0.08887 1.0636   135.2    41.4    21.3
...
2017 04 05    13 11 08.6 -01 20 43   0.08546 1.0854   174.0     5.5    20.1
2017 04 06    12 58 53.7 -06 21 15   0.08857 1.0892   179.8     0.1    19.8
2017 04 07    12 47 23.2 -10 57 41   0.09257 1.0931   174.2     5.3    20.3
...
2017 04 13    11 53 26.6 -29 44 00   0.1300  1.1172   150.1    26.6    21.8
...
2017 04 21    11 12 59.6 -40 06 13   0.1969  1.1515   134.5    38.5    23.1
...
2017 05 06    10 48 10.2 -46 08 27   0.3371  1.2206   121.8    44.6    24.6

A. U. Tomatic                (C) Copyright 2017 MPC           M.P.E.C. 2017-G59




More information about the Iaude mailing list